Theta_e
329 332 355 354 352 349 346 343 342 341 340 339 338 337 336 335 334 333 332 331 331 330 331 331 331 331 332 334 335 336 338 340 342 344 350 353 355 357 358 358 358 355 360
334 334 355 355 352 350 349 346 346 345 344 340 340 338 337 336 335 335 335 334 334 334 334 334 334 333 333 334 335 336 337 338 340 343 345 351 353 356 357 356 358 356 360
332 337 351 355 353 351 350 348 347 347 346 343 341 340 339 339 339 339 338 338 338 338 338 338 337 337 336 336 335 337 338 338 339 341 343 352 354 355 356 356 357 357 358
334 341 345 355 353 352 351 350 349 348 346 344 343 342 341 341 341 341 341 341 340 340 339 340 340 341 340 338 337 337 337 338 338 340 340 347 352 353 355 356 356 357 357
336 342 349 355 353 352 352 352 351 349 348 346 343 342 342 343 343 345 343 343 342 341 340 342 343 342 341 341 340 338 338 337 338 340 339 343 353 351 354 355 355 356 356
335 342 349 355 353 353 352 352 352 350 349 346 344 344 344 344 345 345 345 344 343 343 342 343 342 343 342 343 342 341 341 337 337 338 341 341 348 350 352 353 354 354 354
335 339 347 354 354 353 354 353 352 351 350 349 347 346 347 346 345 345 344 343 343 342 342 342 342 344 342 344 343 343 342 338 336 337 341 342 344 347 350 353 353 353 353
338 340 346 354 354 353 353 352 352 351 351 351 350 349 349 346 345 344 343 342 342 342 342 341 341 343 343 343 343 342 341 340 336 338 340 341 344 345 349 351 352 351 352
341 342 346 350 354 354 353 352 352 352 351 351 350 350 347 344 342 338 337 337 338 338 339 340 340 341 341 340 341 342 341 340 338 338 338 340 343 346 348 350 352 352 353
339 342 345 350 350 350 350 353 352 352 352 351 350 346 344 339 336 336 336 335 335 336 337 338 339 339 340 341 341 340 340 340 339 339 339 338 343 345 347 350 351 352 352
336 339 343 344 348 348 348 349 352 352 350 348 344 342 340 336 337 336 334 334 334 333 334 336 337 337 339 339 338 339 339 338 338 338 338 341 342 344 345 348 351 352 352
334 336 339 343 346 347 346 349 349 347 344 342 341 339 338 339 338 334 333 333 333 334 335 336 337 337 336 337 335 338 337 337 338 338 337 340 342 343 344 347 348 351 352
334 337 339 343 346 346 345 345 345 342 341 341 340 339 338 336 335 333 332 333 334 331 331 332 333 332 332 337 336 336 336 337 337 338 336 339 340 342 343 345 348 350 351
332 336 340 343 344 346 344 342 339 338 337 335 336 338 337 334 335 333 331 332 333 332 333 334 333 335 335 336 337 336 337 336 336 337 335 338 339 341 342 344 347 349 350
330 333 339 342 342 343 341 338 336 336 334 335 335 335 334 333 333 333 332 332 332 332 333 332 333 333 334 336 336 336 335 336 337 336 334 337 338 339 341 343 347 348 349
330 330 335 338 342 339 337 337 335 335 334 335 334 334 334 333 333 332 332 332 332 333 331 332 331 331 331 334 334 335 335 336 336 335 331 334 336 338 339 343 346 347 348
328 328 331 337 338 336 336 335 334 333 334 333 334 336 334 335 334 334 333 332 332 333 332 332 331 332 331 333 333 334 334 335 334 334 332 335 336 337 339 341 345 346 347
327 324 329 330 333 334 334 333 332 332 333 333 334 335 335 336 336 335 332 332 333 331 330 330 329 328 329 330 332 333 333 334 334 334 333 334 338 339 340 341 345 345 347
325 326 327 330 331 331 333 332 333 334 333 334 335 335 336 335 335 334 333 332 333 330 329 329 329 328 327 329 330 331 331 331 333 333 334 339 341 343 342 343 345 345 346
324 329 330 330 331 332 331 331 331 332 333 334 334 335 335 335 335 334 332 331 331 328 328 329 329 328 328 330 328 330 331 332 333 335 337 338 340 342 344 345 345 345 341
324 326 328 329 331 330 327 327 328 329 332 333 334 336 335 336 335 335 330 329 327 326 329 330 328 327 326 330 328 328 328 333 335 337 340 341 339 340 343 343 345 347 345
324 326 328 329 330 330 330 331 332 333 334 334 335 336 336 336 336 334 332 329 329 328 329 328 327 324 327 329 326 326 320 325 331 334 336 336 337 338 339 341 345 346 344
323 325 327 329 330 331 332 331 333 334 333 332 334 335 335 334 333 333 332 332 332 330 329 328 327 326 322 326 330 327 319 316 324 333 332 332 334 335 336 339 340 338 337
323 326 329 330 331 331 333 332 332 331 330 331 333 333 334 332 332 333 333 333 332 330 329 327 328 327 327 323 327 330 333 330 321 320 332 331 333 332 332 332 333 334 337
324 326 328 331 331 332 332 332 332 333 332 333 333 331 332 333 332 331 332 332 332 330 330 329 328 328 328 328 329 328 331 332 332 325 318 323 327 330 330 332 332 332 332
325 327 328 330 331 331 331 332 334 332 330 329 330 330 331 331 332 332 330 332 331 331 331 329 330 330 330 332 333 333 331 328 328 328 322 323 322 325 329 332 332 332 332
Wind_Speed
12 16 20 19 17 16 17 16 15 14 13 11 10 8 7 7 6 5 4 3 2 2 2 3 3 3 4 4 3 2 2 3 3 4 5 6 6 8 8 10 11 11 13
17 17 21 20 19 19 17 17 15 14 13 12 11 10 8 6 6 5 5 4 4 4 4 4 4 5 5 7 5 4 3 3 4 4 6 5 7 9 11 11 12 10 13
19 17 22 22 21 20 19 17 15 14 14 13 12 10 10 10 9 9 8 7 7 7 6 6 6 5 6 8 8 6 6 4 4 4 6 5 6 11 13 13 13 12 14
18 16 21 24 22 20 18 17 16 15 15 14 13 13 12 12 12 12 12 11 11 10 10 9 8 8 8 8 10 9 7 5 4 5 6 6 6 9 13 14 14 14 15
16 16 18 24 22 20 19 18 17 17 16 15 15 14 13 13 13 13 13 13 13 13 13 13 12 12 10 9 11 10 9 8 6 7 6 6 5 6 12 13 13 14 16
16 15 18 22 21 21 20 19 18 17 16 16 16 15 15 15 14 15 15 16 15 15 15 15 13 11 12 11 11 11 10 9 9 8 6 5 7 3 9 13 13 13 14
15 16 16 22 22 22 20 19 18 17 16 16 16 16 16 14 14 14 15 15 15 15 16 16 14 13 13 12 13 11 11 11 10 7 7 6 7 5 9 11 10 11 14
15 16 16 21 21 20 19 18 17 16 15 15 15 15 14 12 12 12 12 13 13 15 15 15 14 13 12 11 11 11 10 12 10 9 8 7 5 8 10 11 11 10 15
13 14 14 17 19 18 18 17 17 16 15 14 13 14 9 8 8 9 10 12 13 14 15 15 15 15 14 12 12 11 11 12 11 7 8 6 6 8 10 11 11 12 15
11 13 15 15 17 16 15 16 16 15 13 12 10 9 9 8 7 8 8 9 9 11 13 16 16 16 15 13 13 12 12 13 11 9 8 7 7 9 10 12 12 13 15
11 13 14 16 15 14 13 13 14 15 13 11 11 11 8 6 6 8 9 10 11 11 12 13 14 14 15 15 15 15 14 8 9 7 6 6 9 11 11 12 13 13 15
17 17 15 15 14 13 10 11 11 10 9 9 8 8 6 6 5 7 10 11 11 12 13 12 12 12 12 9 8 13 9 10 9 7 6 7 10 12 13 13 13 13 15
18 14 16 14 12 12 10 8 5 5 6 6 8 7 6 5 5 6 5 5 5 7 6 7 7 6 8 7 7 7 8 9 7 6 8 9 10 13 13 13 13 12 14
18 17 14 14 12 13 9 8 8 6 6 5 6 8 6 5 7 7 6 6 5 5 6 5 4 5 7 7 8 8 10 8 6 5 7 10 11 12 13 14 13 13 14
19 15 16 16 15 13 11 7 7 7 6 6 6 7 6 7 7 7 7 6 6 5 5 5 5 4 5 6 7 8 9 10 8 5 5 9 11 13 13 13 13 13 16
17 17 15 16 13 12 10 10 7 6 6 6 5 6 8 7 7 7 7 7 6 5 5 5 5 4 5 5 7 8 8 8 7 7 6 6 10 13 14 12 14 13 16
16 15 17 16 15 14 12 10 7 6 6 5 6 8 9 9 9 9 7 7 7 5 6 5 5 4 5 5 6 6 6 6 6 7 7 6 6 12 13 13 14 12 16
13 16 16 14 16 15 12 9 6 5 5 5 6 7 9 10 10 9 7 6 5 5 5 5 4 5 5 5 5 5 5 5 6 7 7 7 6 6 8 11 12 13 16
15 16 17 16 17 15 12 8 6 5 5 6 6 7 8 10 10 9 6 5 6 5 5 5 5 6 5 5 5 5 4 5 6 5 6 7 7 5 5 4 10 11 14
15 17 18 16 16 14 9 6 4 4 5 6 6 6 8 7 9 8 6 6 5 5 5 5 6 5 5 5 4 4 4 4 4 5 5 4 4 5 5 5 4 7 18
14 15 17 17 15 11 8 6 4 5 5 5 5 6 6 6 8 8 5 5 6 7 6 6 5 6 6 5 4 4 3 5 4 2 2 2 2 4 4 5 5 5 13
13 15 17 17 16 11 7 5 2 3 3 4 3 4 4 5 5 6 6 6 7 5 6 7 7 6 5 5 4 4 4 4 3 2 2 1 2 2 3 4 5 8 8
13 15 17 16 14 11 8 5 3 2 3 3 2 1 0 3 4 6 7 7 6 5 5 6 8 8 7 6 6 2 4 4 5 2 4 3 2 2 2 3 9 10 11
12 15 15 14 13 10 9 6 6 3 3 0 1 0 1 1 2 3 5 6 5 4 5 6 7 7 7 6 5 4 2 4 3 4 3 3 2 4 5 6 8 10 12
15 14 13 12 11 10 9 6 5 4 1 1 1 1 1 1 2 3 4 5 5 5 5 6 7 8 7 6 5 5 3 2 4 4 3 2 3 4 6 7 9 7 8
14 13 13 13 11 10 8 7 5 4 3 2 2 1 1 1 2 3 5 4 4 4 5 6 7 8 6 4 5 5 3 1 3 3 4 3 5 4 5 6 7 6 8
Wind_Direction
202 168 170 168 165 169 172 174 172 171 171 171 170 174 173 173 179 185 191 182 189 225 216 219 246 262 255 255 250 259 282 301 326 334 328 305 231 197 192 185 179 174 155
166 171 171 169 171 177 179 179 177 177 179 181 182 188 193 204 219 227 231 234 233 242 250 255 248 248 253 259 243 250 250 275 296 319 315 303 240 213 202 193 190 167 165
162 168 172 173 177 182 182 180 180 183 186 188 192 201 208 213 219 234 244 253 266 274 271 264 260 254 249 256 257 242 245 239 275 295 301 276 265 211 203 198 190 177 170
165 168 177 178 180 184 184 183 183 187 191 194 201 210 219 230 234 235 233 238 245 256 263 262 252 249 245 244 255 250 250 251 256 277 260 276 271 216 210 203 197 187 179
169 172 181 180 181 183 186 188 187 190 195 199 208 218 225 234 239 241 240 242 249 251 255 251 249 250 241 239 243 248 244 252 259 249 254 263 274 231 224 209 201 200 188
173 178 179 182 182 186 189 191 191 194 197 203 214 223 231 237 242 246 244 249 253 253 254 257 262 269 257 245 239 235 235 236 251 245 240 238 264 257 244 220 226 210 197
177 184 182 186 187 188 190 192 194 197 201 209 216 224 234 241 249 253 252 256 260 263 259 257 258 255 262 257 257 240 229 231 248 245 241 242 249 270 258 236 226 210 195
178 184 188 187 190 190 191 191 194 200 206 214 222 232 242 245 253 258 263 266 270 266 267 265 261 269 274 273 263 250 243 231 234 239 240 241 234 258 257 245 230 207 189
184 183 185 189 193 194 195 191 192 201 209 217 227 240 240 242 251 263 270 274 274 272 270 269 265 265 262 261 259 249 238 232 247 238 236 237 214 249 252 249 234 212 198
195 192 187 191 191 196 197 196 195 200 207 219 227 230 227 233 250 259 272 262 278 281 279 271 268 264 263 256 248 244 239 237 236 233 235 241 232 250 256 249 238 220 203
207 200 194 191 192 194 197 198 197 205 210 213 218 221 220 243 257 266 274 267 266 268 267 268 269 266 274 259 246 236 233 232 228 230 237 229 242 252 255 258 248 227 209
207 205 199 195 193 190 193 196 200 210 210 213 217 219 230 240 247 263 267 259 263 265 270 276 286 284 280 250 228 225 227 230 220 225 236 235 242 252 254 259 251 239 214
213 208 200 190 191 192 191 189 193 204 205 210 214 220 230 238 239 247 260 253 260 255 262 262 267 268 275 257 239 234 228 221 224 227 240 236 245 251 254 260 252 244 223
214 212 201 187 179 184 190 187 192 203 207 215 216 222 233 240 237 246 252 252 249 253 258 262 262 274 272 254 243 236 227 220 216 233 238 246 250 253 253 260 254 250 222
227 210 196 188 182 181 180 182 197 204 213 221 220 229 232 240 242 248 243 247 249 250 251 257 254 266 264 248 235 229 220 215 222 236 243 236 251 258 252 256 254 252 221
223 207 190 190 182 169 181 186 194 208 214 220 231 234 223 237 241 248 244 244 248 237 248 247 251 261 257 244 227 218 218 217 228 239 240 249 253 254 251 254 253 249 219
220 194 183 185 177 175 181 188 196 204 215 222 235 233 231 232 237 240 242 238 239 231 239 237 234 236 243 232 231 215 219 221 233 239 243 249 258 238 245 250 247 253 218
210 187 172 181 180 175 177 184 194 198 217 235 241 241 238 236 235 234 233 232 223 220 233 238 234 236 237 228 215 210 206 220 236 237 243 251 246 243 226 238 246 243 222
185 175 172 177 177 171 171 178 183 205 227 243 248 249 247 237 231 227 230 234 215 223 225 229 220 237 224 221 216 210 213 228 237 243 247 246 243 240 246 209 234 225 221
177 174 166 170 165 162 157 156 170 218 242 245 251 251 244 233 222 217 222 228 221 223 220 212 227 213 233 218 207 202 209 228 231 233 244 241 247 250 250 255 233 200 148
178 169 161 155 159 155 153 157 192 223 240 238 241 254 244 225 211 213 214 220 212 219 223 215 221 222 215 197 185 174 185 209 216 234 203 209 227 256 269 254 218 185 178
170 166 159 153 157 162 154 152 162 197 230 271 266 265 237 220 216 215 207 213 211 215 210 208 210 209 217 202 204 169 167 164 122 107 127 166 240 243 218 228 189 160 150
165 160 154 150 154 156 149 134 144 212 231 235 220 204 78 228 221 226 213 208 206 212 214 206 208 211 197 202 221 216 168 180 158 175 150 135 166 167 137 135 132 123 125
157 153 145 146 150 153 154 160 183 209 245 230 296 339 99 164 191 199 208 197 206 203 204 200 197 204 207 195 204 232 277 137 160 167 153 141 148 122 89 90 107 125 133
153 147 144 143 150 151 159 175 182 203 221 176 190 200 138 131 139 170 185 181 190 200 200 197 189 203 207 212 202 177 198 157 150 148 141 135 73 90 108 110 109 114 137
149 145 145 149 152 151 163 173 189 208 171 191 202 205 192 146 128 172 151 161 177 200 209 196 199 205 215 238 208 208 199 177 170 151 132 129 103 64 94 110 118 113 119